Flag for Canada Weather past 2 weeks in Churchill, Manitoba, Canada

Now
52 °F

Mostly cloudy.


Feels Like: 46 °F
Forecast: 23 / 43 °F
Wind: 17 mph from West

Location: Churchill

Current Time: May 23, 2015 at 10:41:01 PM

Latest Report: May 23, 2015 at 10:00 PM


Visibility: 15 mi

Pressure: 29.84 "Hg

Humidity: 54%

Dew point: 36 °F

Location of ChurchillLocation

Historic Weather in Churchill — Graph

°F

Churchill temperature yesterday

Maximum temperature yesterday: 54 °F (at 9:00 AM)
Minimum temperature yesterday: 32 °F (at 10:00 PM)
Average temperature yesterday: 38 °F

Past Weeks' High & Low Weather Summary

 TemperatureHumidityPressure
High70 °F (May 15, 4:00 PM)100% (May 11, 8:00 PM)30.58 "Hg (May 11, 8:00 PM)
Low9 °F (May 9, 5:00 AM)28% (May 15, 7:00 PM)29.62 "Hg (May 15, 10:00 PM)
Average33 °F75%30.20 "Hg
* Reported May 8 9:00 PM — May 23 9:00 PM, Churchill, Weather by CustomWeather, © 2015

Note: Actual official high and low records may vary slightly from our data, if they occured in-between our weather recording intervals... More about our weather records

Advertising

Churchill weather history for previous 24 hours

 ConditionsComfort  
Time TempWeatherWind HumidityBarometerVisibility
9:00 PM
Sat, May 23
54 °FCloudy.16 mph41%29.85 "Hg15 mi
8:00 PM54 °FPartly sunny.16 mph38%29.89 "Hg15 mi
7:00 PM54 °FBroken clouds.20 mph35%29.93 "Hg15 mi
6:00 PM52 °FPartly sunny.15 mph41%29.98 "Hg15 mi
5:00 PM52 °FPartly sunny.14 mph38%30.03 "Hg15 mi
4:00 PM52 °FBroken clouds.14 mph41%30.06 "Hg15 mi
3:00 PM48 °FPartly sunny.10 mph43%30.11 "Hg15 mi
2:00 PM43 °FPartly sunny.6 mph49%30.15 "Hg15 mi
1:00 PM41 °FPartly sunny.7 mph49%30.18 "Hg15 mi
12:00 PM37 °FPartly sunny.9 mph56%30.19 "Hg14 mi
11:00 AM36 °FPartly sunny.13 mph60%30.20 "Hg15 mi
10:00 AM32 °FPartly sunny.13 mph80%30.21 "Hg15 mi
9:00 AM30 °FScattered clouds.12 mph86%30.22 "Hg15 mi
8:00 AM30 °FScattered clouds.13 mph86%30.21 "Hg15 mi
7:00 AM30 °FScattered clouds.14 mph86%30.20 "Hg15 mi
6:00 AM30 °FScattered clouds.13 mph86%30.19 "Hg15 mi
5:00 AM30 °FPassing clouds.12 mph86%30.17 "Hg15 mi
4:00 AM30 °FPassing clouds.12 mph93%30.16 "Hg15 mi
3:00 AM32 °FPassing clouds.14 mph87%30.15 "Hg15 mi
2:00 AM32 °FOvercast.14 mph87%30.15 "Hg10 mi
1:00 AM30 °FOvercast.16 mph93%30.14 "Hg10 mi
12:00 AM32 °FOvercast.16 mph87%30.13 "Hg10 mi
11:00 PM
Fri, May 22
32 °FSnow flurries. Ice fog.16 mph93%30.12 "Hg3 mi
10:00 PM32 °FIce fog.15 mph100%30.11 "Hg5 mi
Weather by CustomWeather, © 2015

See weather overviewHow to use our weather pages